Terminal Aerodrome Forecast
Issued by NWS Dodge City, KS

Home | Current Version | Previous Version | Graphics & Text | Print | Product List | Glossary Off
Versions: 1 2 3 4 5 6 7 8 9 10 11 12 13 14 15 16 17 18 19 20 21 22 23 24 25 26 27 28 29 30 31 32 33 34 35 36 37 38 39 40 41 42 43 44 45 46 47 48 49 50

000
FTUS43 KDDC 230110 AAB
TAFDDC
TAF AMD
KDDC 230110Z 2301/2324 18015G25KT 4SM BR OVC010
      TEMPO 2303/2307 1SM BR OVC001
     FM231000 19010KT P6SM SCT010
     FM231400 35025G35KT P6SM BKN020
     FM232200 33010KT P6SM BKN050=

USA.gov is the U.S. government's official web portal to all federal, state and local government web resources and services.